Flag for Germany Weather past 2 weeks in Oranienburg, Brandenburg, Germany

Now
54 °F

Passing clouds.


Feels Like: 54 °F
Forecast: 49 / 69 °F
Wind: 1 mph from South

Location: Berlin-Tegel

Current Time: Aug 22, 2014 at 1:10:44 AM

Latest Report: Aug 22, 2014 at 12:00 AM


Visibility: 28 mi

Pressure: 29.99 "Hg

Humidity: 69%

Dew point: 44 °F

Location of OranienburgLocation

Historic Weather in Oranienburg — Graph

°F

Oranienburg temperature yesterday

Maximum temperature yesterday: 66 °F (at 4:00 PM)
Minimum temperature yesterday: 47 °F (at 6:00 AM)
Average temperature yesterday: 57 °F

Past Weeks' High & Low Weather Summary

 TemperatureHumidityPressure
High83 °F (Aug 10, 6:00 PM)95% (Aug 8, 7:00 AM)30.02 "Hg (Aug 8, 7:00 AM)
Low47 °F (Aug 21, 6:00 AM)34% (Aug 11, 5:00 PM)29.60 "Hg (Aug 18, 4:00 PM)
Average64 °F65%29.85 "Hg
* Reported Midnight between Aug 6 and Aug 7 — Midnight between Aug 21 and Aug 22, Oranienburg, Weather by CustomWeather, © 2014

Note: Actual official high and low records may vary slightly from our data, if they occured in-between our weather recording intervals... More about our weather records

Advertising

Oranienburg weather history for previous 24 hours

 ConditionsComfort  
Time TempWeatherWind HumidityBarometerVisibility
12:00 AM
Aug 22
54 °FPassing clouds.1 mph69%29.99 "Hg28 mi
11:00 PM
Aug 21
56 °FClear.1 mph62%29.99 "Hg28 mi
10:00 PM57 °FPassing clouds.1 mph59%29.99 "Hg28 mi
9:00 PM59 °FPassing clouds.No wind52%29.98 "Hg25 mi
8:00 PM62 °FScattered clouds.3 mph46%29.98 "Hg28 mi
7:00 PM65 °FScattered clouds.6 mph41%29.98 "Hg28 mi
6:00 PM65 °FScattered clouds.7 mph41%29.98 "Hg25 mi
5:00 PM65 °FScattered clouds.5 mph40%29.98 "Hg25 mi
4:00 PM66 °FPartly sunny.6 mph47%29.98 "Hg25 mi
3:00 PM64 °FPartly sunny.6 mph48%29.99 "Hg25 mi
2:00 PM64 °FPartly sunny.6 mph53%30.00 "Hg22 mi
1:00 PM62 °FPartly sunny.3 mph60%30.01 "Hg19 mi
12:00 PM60 °FScattered clouds.2 mph71%30.01 "Hg19 mi
11:00 AM56 °FOvercast.2 mph81%30.02 "Hg17 mi
10:00 AM54 °FLight rain. Overcast.3 mph83%30.02 "Hg9 mi
9:00 AM56 °FOvercast.3 mph70%30.01 "Hg19 mi
8:00 AM53 °FPartly sunny.2 mph82%30.01 "Hg19 mi
7:00 AM48 °FScattered clouds.1 mph88%30.00 "Hg16 mi
6:00 AM47 °FPassing clouds.1 mph90%29.99 "Hg25 mi
5:00 AM48 °FFog.1 mph89%29.99 "Hg25 mi
4:00 AM49 °FPassing clouds.1 mph89%29.99 "Hg25 mi
3:00 AM49 °FPassing clouds.No wind86%29.99 "Hg25 mi
2:00 AM50 °FPassing clouds.1 mph81%30.00 "Hg25 mi
1:00 AM51 °FPassing clouds.1 mph79%30.00 "Hg25 mi
Weather by CustomWeather, © 2014

See weather overviewHow to use our weather pages